Total_Precipitation_Accumulation
1.82 1.93 1.91 1.87 1.86 1.83 1.71 1.65 1.68 1.67 1.66 1.72 1.74 1.86 1.99 2.20 2.40 2.53 2.50 2.44 2.41 2.36 2.27 2.39 2.54 2.60 2.74 2.79 2.85 2.78 2.67 2.64 2.53 2.23 2.01 1.96 2.18 2.24 2.19 2.11 1.94 1.91 1.88
1.68 1.80 1.93 1.85 1.81 1.78 1.66 1.72 1.66 1.58 1.57 1.56 1.64 1.83 1.93 1.99 2.07 2.14 2.18 2.21 2.22 2.24 2.18 2.14 2.21 2.31 2.42 2.61 2.75 2.74 2.76 2.68 2.63 2.56 2.31 2.07 2.01 2.10 2.20 2.33 2.20 1.94 1.91
1.83 1.97 1.99 1.91 1.86 1.85 1.72 1.81 1.71 1.61 1.58 1.55 1.55 1.66 1.73 1.81 1.88 1.93 2.05 2.13 2.14 2.06 2.05 1.93 1.90 2.02 2.15 2.31 2.40 2.53 2.69 2.74 2.78 2.71 2.58 2.35 2.09 2.12 2.23 2.29 2.31 2.36 2.09
2.03 2.12 2.00 1.93 1.87 1.84 1.73 1.69 1.66 1.59 1.53 1.55 1.65 1.69 1.70 1.69 1.80 1.86 1.94 1.93 1.89 1.79 1.76 1.69 1.67 1.72 1.86 2.06 2.17 2.39 2.66 2.79 2.84 2.81 2.72 2.44 2.23 2.19 2.19 2.27 2.40 2.47 2.40
1.90 1.93 1.93 1.81 1.68 1.63 1.67 1.50 1.50 1.59 1.57 1.58 1.65 1.71 1.73 1.70 1.75 1.86 1.80 1.68 1.67 1.66 1.58 1.40 1.35 1.46 1.54 1.68 1.67 1.97 2.30 2.57 2.66 2.69 2.67 2.49 2.23 2.13 1.98 2.05 2.24 2.42 2.46
1.74 1.70 1.72 1.69 1.65 1.59 1.53 1.48 1.44 1.44 1.48 1.51 1.51 1.66 1.77 1.64 1.84 1.86 1.66 1.45 1.42 1.47 1.44 1.31 1.24 1.30 1.27 1.28 1.33 1.58 1.91 2.11 2.28 2.44 2.49 2.34 2.14 2.05 2.10 2.10 2.12 2.18 2.20
1.56 1.49 1.39 1.41 1.45 1.44 1.43 1.46 1.46 1.43 1.42 1.44 1.39 1.49 1.54 1.63 1.71 1.54 1.52 1.39 1.36 1.34 1.36 1.39 1.27 1.20 1.35 1.21 1.19 1.30 1.40 1.54 1.71 1.97 2.17 2.13 2.23 2.15 2.06 1.95 1.96 1.98 2.00
1.41 1.45 1.37 1.30 1.31 1.33 1.34 1.40 1.46 1.40 1.35 1.37 1.32 1.27 1.33 1.47 1.51 1.35 1.42 1.30 1.38 1.40 1.41 1.50 1.49 1.38 1.37 1.49 1.41 1.40 1.34 1.29 1.42 1.34 1.49 1.88 2.06 2.17 2.15 2.15 2.25 2.15 1.95
1.11 1.19 1.22 1.16 1.21 1.33 1.31 1.40 1.47 1.36 1.32 1.28 1.28 1.22 1.24 1.29 1.33 1.24 1.28 1.26 1.38 1.38 1.33 1.47 1.54 1.44 1.59 1.74 1.75 1.75 1.64 1.46 1.62 1.65 1.53 1.64 1.85 1.94 2.06 2.11 2.13 2.07 1.96
0.89 0.91 1.00 1.06 1.12 1.22 1.36 1.45 1.43 1.38 1.34 1.25 1.24 1.18 1.13 1.11 1.22 1.11 1.20 1.24 1.32 1.35 1.36 1.41 1.64 1.56 1.58 1.59 1.61 1.71 1.65 1.47 1.33 1.33 1.32 1.25 1.21 1.35 1.61 1.70 1.96 2.11 2.04
0.82 0.87 0.91 0.94 1.03 1.21 1.34 1.36 1.31 1.28 1.29 1.25 1.24 1.15 1.08 1.12 1.23 1.24 1.28 1.23 1.30 1.35 1.47 1.51 1.50 1.68 1.53 1.48 1.47 1.41 1.50 1.50 1.49 1.52 1.53 1.40 1.32 1.30 1.32 1.36 1.59 1.88 2.04
0.73 0.81 0.80 0.82 0.88 0.99 1.10 1.20 1.23 1.23 1.24 1.17 1.14 1.10 1.02 1.08 1.13 1.14 1.18 1.20 1.30 1.26 1.29 1.32 1.31 1.49 1.34 1.28 1.21 1.24 1.38 1.46 1.51 1.66 1.63 1.52 1.46 1.40 1.39 1.41 1.47 1.58 1.68
0.71 0.77 0.75 0.73 0.80 0.88 0.99 1.12 1.22 1.26 1.24 1.16 1.04 1.00 0.93 0.93 0.98 1.04 1.02 1.01 1.08 1.09 1.05 1.23 1.27 1.28 1.22 1.11 1.16 1.23 1.26 1.27 1.39 1.51 1.51 1.42 1.40 1.47 1.51 1.49 1.52 1.57 1.54
0.68 0.75 0.83 0.85 0.86 0.89 0.93 1.03 1.20 1.26 1.18 1.08 1.02 0.99 1.00 0.94 0.89 0.89 0.93 0.91 0.93 0.99 1.00 1.12 1.18 1.14 1.11 1.08 1.12 1.16 1.18 1.23 1.32 1.35 1.34 1.36 1.38 1.45 1.55 1.54 1.55 1.63 1.69
0.65 0.69 0.71 0.79 0.84 0.84 0.83 0.85 0.97 1.06 1.16 1.19 1.13 1.08 1.09 1.04 0.93 0.90 0.86 0.89 0.93 1.02 1.13 1.09 1.08 1.06 1.05 1.08 1.09 1.09 1.15 1.22 1.24 1.21 1.27 1.33 1.34 1.39 1.43 1.45 1.51 1.57 1.58
0.64 0.68 0.71 0.74 0.79 0.79 0.79 0.85 0.87 0.91 1.07 1.13 1.17 1.15 0.99 0.92 0.90 0.84 0.82 0.86 0.96 1.07 1.21 1.23 1.24 1.28 1.28 1.25 1.21 1.12 1.07 1.11 1.18 1.26 1.32 1.34 1.35 1.34 1.38 1.39 1.44 1.55 1.55
0.76 0.75 0.77 0.78 0.77 0.75 0.79 0.85 0.87 0.82 0.82 0.85 0.93 0.96 0.95 0.95 0.88 0.85 0.84 0.89 0.96 1.06 1.19 1.31 1.31 1.29 1.24 1.21 1.17 1.11 1.04 1.00 1.04 1.16 1.32 1.43 1.45 1.45 1.48 1.53 1.50 1.46 1.45
0.96 1.00 0.92 0.83 0.79 0.75 0.78 0.84 0.88 0.93 0.88 0.76 0.77 0.88 0.91 0.91 0.90 0.91 1.02 1.10 1.06 1.06 1.12 1.20 1.21 1.19 1.15 1.11 1.05 1.00 1.00 0.99 1.01 1.07 1.11 1.22 1.40 1.50 1.58 1.60 1.63 1.65 1.64
0.93 0.99 0.99 0.93 0.87 0.84 0.87 0.94 0.94 0.87 0.86 0.84 0.78 0.81 0.88 0.92 0.94 0.94 0.97 0.99 0.99 1.00 1.01 1.02 1.00 0.98 0.98 0.98 0.98 1.00 1.04 1.02 1.01 1.05 1.06 1.08 1.19 1.34 1.52 1.62 1.66 1.75 1.71
0.79 0.90 1.00 1.01 0.97 0.94 0.98 1.00 0.99 0.91 0.83 0.83 0.81 0.79 0.82 0.83 0.82 0.83 0.81 0.83 0.91 0.93 0.92 0.94 0.97 0.96 0.92 0.92 0.97 1.01 1.07 1.08 1.04 1.06 1.11 1.14 1.23 1.30 1.35 1.45 1.61 1.67 1.57
0.71 0.78 0.90 0.92 0.91 0.90 0.94 0.99 1.01 0.99 0.92 0.88 0.87 0.87 0.90 0.85 0.85 0.85 0.84 0.85 0.86 0.86 0.86 0.90 0.94 0.96 0.95 0.99 1.01 1.03 1.09 1.12 1.11 1.10 1.11 1.16 1.23 1.33 1.38 1.41 1.45 1.49 1.54
0.74 0.76 0.82 0.87 0.89 0.90 0.92 0.91 0.95 0.98 0.97 0.95 0.96 1.00 1.06 0.93 0.91 0.92 0.94 0.96 0.94 0.91 0.92 0.99 1.04 1.02 0.99 1.03 1.08 1.11 1.13 1.14 1.14 1.18 1.23 1.24 1.26 1.29 1.38 1.47 1.48 1.48 1.51
0.77 0.77 0.80 0.87 0.90 0.95 0.97 0.92 0.91 0.91 0.91 0.91 0.91 0.95 0.96 0.92 0.94 0.95 0.97 0.98 1.00 1.01 1.02 1.11 1.15 1.11 1.07 1.08 1.11 1.14 1.17 1.17 1.18 1.21 1.29 1.32 1.31 1.30 1.35 1.40 1.39 1.42 1.46
0.80 0.84 0.88 0.93 0.93 0.92 0.96 0.97 0.95 0.93 0.94 0.93 0.94 0.98 1.00 0.98 0.97 0.94 0.96 0.97 0.97 0.97 0.99 1.05 1.13 1.13 1.13 1.14 1.14 1.13 1.14 1.21 1.21 1.21 1.29 1.40 1.41 1.38 1.41 1.44 1.42 1.41 1.51
0.83 0.87 0.92 0.96 0.99 1.00 1.01 1.01 0.99 0.98 0.98 1.00 1.02 1.03 1.01 0.99 0.97 0.95 0.94 0.95 0.98 0.99 1.00 1.02 1.09 1.15 1.18 1.20 1.17 1.14 1.27 1.33 1.30 1.24 1.24 1.37 1.41 1.44 1.52 1.57 1.60 1.66 1.75
0.87 0.91 0.97 0.99 1.02 1.05 1.10 1.10 1.05 1.06 1.04 1.03 1.04 1.06 1.06 1.06 1.05 1.06 1.05 1.01 0.99 0.98 1.01 1.07 1.11 1.11 1.13 1.18 1.23 1.31 1.34 1.24 1.26 1.37 1.33 1.35 1.40 1.44 1.57 1.70 1.74 1.85 1.91